This demonstration page uses our WeatherBlox Daily Observations layout. Learn more.

Left ArrowRight Arrow

Hourly Observations for March 17, 2021

Temp ( °F °C ) Dew Point ( °F °C ) Humidity (%) Winds ( mph kmh ) Pressure ( in mb ) Visibility ( mi km ) Precip ( " mm )
12:31 am 00:31 Cloudy with Mist and Fog 42 5.6 39 3.9 89 89 NW 12 19 29.97 1015 4 6 0.00 0.00
12:39 am 00:39 Cloudy with Mist and Fog 41 5 39 3.9 93 93 NW 9 15 29.99 1015 5 8 0.00 0.00
12:54 am 00:54 Cloudy with Light Rain 41 5 39 3.9 93 93 NW 10 17 29.96 1015 5 8 0.00 0.00
1:54 am 01:54 Cloudy with Light Rain 42 5.6 40 4.4 92 92 N 16 26 29.96 1014 3 4 0.01 0.25
2:05 am 02:05 Cloudy with Light Rain 41 5 38 3.3 89 89 N 17 28 29.99 1015 3 5 0.00 0.00
2:54 am 02:54 Cloudy with Light Rain 39 3.9 36 2.2 89 89 N 14 22 29.97 1015 5 8 0.01 0.25
3:08 am 03:08 Cloudy with Light Rain 39 3.9 36 2.2 89 89 N 15 24 29.98 1015 5 8 0.00 0.00
3:54 am 03:54 Cloudy with Light Rain 38 3.3 36 2.2 93 93 N 14 22 29.95 1014 6 10 0.00 0.00
4:24 am 04:24 Cloudy 38 3.3 35 1.7 89 89 N 15 24 29.96 1015 8 13 0.00 0.00
4:54 am 04:54 Cloudy 38 3.3 35 1.7 89 89 N 17 28 29.93 1014 7 11 0.00 0.00
5:54 am 05:54 Cloudy with Mist and Fog 37 2.8 34 1.1 89 89 N 16 26 29.96 1015 4 6 0.00 0.00
6:54 am 06:54 Cloudy with Mist and Fog 36 2.2 33 0.6 89 89 N 14 22 29.97 1015 5 8 0.00 0.00
7:54 am 07:54 Cloudy with Mist and Fog 35 1.7 32 0 89 89 N 18 30 29.96 1015 5 8 0.00 0.00
8:54 am 08:54 Cloudy with Mist and Fog 35 1.7 32 0 89 89 N 17 28 29.98 1015 5 8 0.00 0.00
9:54 am 09:54 Cloudy with Mist and Fog 35 1.7 32 0 89 89 N 17 28 29.99 1016 6 10 0.00 0.00
10:54 am 10:54 Cloudy with Mist and Fog 35 1.7 32 0 89 89 N 21 33 29.99 1016 6 10 0.00 0.00
11:54 am 11:54 Cloudy with Mist and Fog 36 2.2 32 0 86 86 N 21 33 30.00 1016 6 10 0.00 0.00
12:54 pm 12:54 Cloudy with Mist and Fog 36 2.2 32 0 86 86 N 21 33 30.02 1017 6 10 0.00 0.00
1:54 pm 13:54 Cloudy with Mist and Fog 36 2.2 32 0 86 86 N 20 31 30.01 1016 6 10 0.00 0.00
2:54 pm 14:54 Cloudy 38 3.3 33 0.6 83 83 N 24 39 30.02 1017 7 11 0.00 0.00
3:16 pm 15:16 Cloudy 39 3.9 33 0.6 79 79 N 20 31 30.03 1017 9 14 0.00 0.00
3:54 pm 15:54 Cloudy 39 3.9 33 0.6 79 79 N 22 35 30.01 1016 10 16 0.00 0.00
4:54 pm 16:54 Cloudy 38 3.3 33 0.6 83 83 N 25 41 30.01 1016 10 16 0.00 0.00
5:54 pm 17:54 Cloudy 38 3.3 33 0.6 83 83 N 23 37 30.01 1016 10 16 0.00 0.00
6:54 pm 18:54 Cloudy 38 3.3 32 0 79 79 N 21 33 30.02 1017 10 16 0.00 0.00
7:54 pm 19:54 Cloudy with Light Rain 37 2.8 32 0 82 82 N 22 35 30.04 1017 9 14 0.00 0.00
8:54 pm 20:54 Cloudy with Light Rain 36 2.2 31 -0.6 82 82 N 21 33 30.05 1018 10 16 0.00 0.00
9:54 pm 21:54 Cloudy 36 2.2 31 -0.6 82 82 N 25 41 30.08 1019 10 16 0.00 0.00
10:54 pm 22:54 Cloudy 35 1.7 30 -1.1 82 82 N 23 37 30.10 1019 10 16 0.00 0.00
11:54 pm 23:54 Cloudy 35 1.7 30 -1.1 82 82 N 21 33 30.13 1020 10 16 0.00 0.00

Powered by AerisWeather